Weather History for Waukesha, WI

Change the Weather History Date:

Friday, February 14, 2014

  Actual Average Record
Temperature  
Mean Temperature 14 °F -  
Max Temperature 19 °F 32 °F 54 °F (1954)
Min Temperature 8 °F 16 °F -3 °F (1970)
Degree Days  
Heating Degree Days 52    
Moisture  
Dew Point 7 °F    
Average Humidity 75    
Maximum Humidity 92    
Minimum Humidity 63    
Precipitation  
Precipitation 0.00 in - - ()
Sea Level Pressure  
Sea Level Pressure 29.75 in    
Wind  
Wind Speed 11 mph (WNW)    
Max Wind Speed 16 mph    
Max Gust Speed 24 mph    
Visibility 10 miles    
Events      
Averages and records for this station are not official NWS values.
T = Trace of Precipitation, MM = Missing Value Source: NWS Daily Summary

Daily Weather History Graph

Daily Weather History Graph

Search for Another Location

Airport:

Trip Planner

Search our weather history database for the weather conditions in past years. The results will help you decide how hot, cold, wet, or windy it might be!

Date:

Astronomy

Feb. 14, 2014 Rise Set
Actual Time 6:51 AM CST 5:22 PM CST
Civil Twilight 6:22 AM CST 5:52 PM CST
Nautical Twilight 5:49 AM CST 6:25 PM CST
Astronomical Twilight 5:16 AM CST 6:58 PM CST
Moon 5:28 PM CST (2/14) 6:17 AM CST (2/14)
Length of Visible Light 11h 29m
Length of Day
10h 31m
Full, 100% of the Moon is Illuminated
Feb 14
Full
Feb 14
Full
Feb 22
Last Quarter
Mar 1
New
Mar 8
First Quarter

Hourly Weather History & Observations

Time (CST) Temp. Windchill Dew Point Humidity Pressure Visibility Wind Dir Wind Speed Gust Speed Precip Events Conditions
12:15 AM 19.4 °F 6.0 °F 14.0 °F 80% 29.55 in 7.0 mi WNW 13.8 mph - N/A   Overcast
12:35 AM 19.4 °F 5.0 °F 14.0 °F 80% 29.56 in 7.0 mi WNW 16.1 mph 23.0 mph N/A   Overcast
12:55 AM 17.6 °F 3.7 °F 12.2 °F 79% 29.57 in 10.0 mi West 13.8 mph 21.9 mph N/A   Overcast
1:15 AM 17.6 °F 2.7 °F 12.2 °F 79% 29.56 in 7.0 mi WNW 16.1 mph 24.2 mph N/A   Overcast
1:35 AM 17.6 °F 2.7 °F 12.2 °F 79% 29.56 in 10.0 mi WNW 16.1 mph 21.9 mph N/A   Scattered Clouds
1:55 AM 17.6 °F 3.7 °F 12.2 °F 79% 29.57 in 10.0 mi WNW 13.8 mph 21.9 mph N/A   Clear
2:15 AM 15.8 °F 2.1 °F 10.4 °F 79% 29.58 in 10.0 mi WNW 12.7 mph - N/A   Clear
2:35 AM 14.0 °F 1.2 °F 10.4 °F 86% 29.58 in 10.0 mi West 10.4 mph 17.3 mph N/A   Clear
2:55 AM 14.0 °F 1.2 °F 10.4 °F 86% 29.59 in 10.0 mi West 10.4 mph - N/A   Clear
3:15 AM 14.0 °F 0.5 °F 10.4 °F 86% 29.60 in 10.0 mi West 11.5 mph - N/A   Mostly Cloudy
3:35 AM 14.0 °F 2.0 °F 8.6 °F 79% 29.60 in 7.0 mi West 9.2 mph - N/A   Overcast
3:55 AM 12.2 °F -1.0 °F 8.6 °F 85% 29.59 in 7.0 mi West 10.4 mph - N/A   Scattered Clouds
4:15 AM 10.4 °F -3.3 °F 8.6 °F 92% 29.61 in 7.0 mi West 10.4 mph - N/A   Clear
4:35 AM 10.4 °F -3.3 °F 8.6 °F 92% 29.63 in 7.0 mi West 10.4 mph - N/A   Clear
5:45 AM 8.6 °F -3.7 °F 6.8 °F 92% 29.61 in 7.0 mi WNW 8.1 mph - N/A   Clear
6:45 AM 8.6 °F -4.7 °F 5.0 °F 85% 29.64 in 10.0 mi WNW 9.2 mph - N/A   Scattered Clouds
7:45 AM 8.6 °F -3.7 °F 5.0 °F 85% 29.68 in 10.0 mi West 8.1 mph - N/A   Scattered Clouds
8:45 AM 10.4 °F -2.4 °F 5.0 °F 79% 29.70 in 10.0 mi WNW 9.2 mph - N/A   Scattered Clouds
9:45 AM 12.2 °F 0.7 °F 6.8 °F 79% 29.72 in 10.0 mi WNW 8.1 mph - N/A   Scattered Clouds
10:45 AM 14.0 °F -0.2 °F 6.8 °F 73% 29.72 in 10.0 mi NW 12.7 mph - N/A   Scattered Clouds
11:45 AM 15.8 °F 2.1 °F 6.8 °F 68% 29.73 in 10.0 mi WNW 12.7 mph - N/A   Scattered Clouds
12:45 PM 15.8 °F 2.1 °F 6.8 °F 68% 29.73 in 10.0 mi WNW 12.7 mph - N/A   Scattered Clouds
1:45 PM 15.8 °F 2.1 °F 6.8 °F 68% 29.73 in 10.0 mi WNW 12.7 mph - N/A   Scattered Clouds
2:45 PM 15.8 °F 2.1 °F 6.8 °F 68% 29.75 in 10.0 mi WNW 12.7 mph - N/A   Scattered Clouds
3:45 PM 19.4 °F 7.9 °F 8.6 °F 63% 29.77 in 10.0 mi WNW 10.4 mph - N/A   Scattered Clouds
4:45 PM 19.4 °F 8.6 °F 8.6 °F 63% 29.79 in 10.0 mi WNW 9.2 mph - N/A   Scattered Clouds
5:45 PM 17.6 °F 8.2 °F 6.8 °F 63% 29.82 in 10.0 mi NW 6.9 mph - N/A   Clear
6:35 PM 15.8 °F 8.6 °F 8.6 °F 73% 29.85 in 10.0 mi WNW 4.6 mph - N/A   Clear
6:55 PM 15.8 °F 6.1 °F 6.8 °F 68% 29.86 in 10.0 mi WNW 6.9 mph - N/A   Clear
7:15 PM 14.0 °F 5.1 °F 6.8 °F 73% 29.87 in 10.0 mi WNW 5.8 mph - N/A   Clear
7:35 PM 14.0 °F 5.1 °F 5.0 °F 67% 29.87 in 10.0 mi WNW 5.8 mph - N/A   Clear
7:55 PM 14.0 °F 3.9 °F 6.8 °F 73% 29.88 in 10.0 mi WNW 6.9 mph - N/A   Clear
8:15 PM 14.0 °F 2.9 °F 5.0 °F 67% 29.88 in 10.0 mi WNW 8.1 mph - N/A   Clear
8:35 PM 14.0 °F 2.0 °F 5.0 °F 67% 29.89 in 10.0 mi WNW 9.2 mph - N/A   Clear
8:55 PM 12.2 °F -0.2 °F 5.0 °F 73% 29.90 in 10.0 mi WNW 9.2 mph - N/A   Clear
9:15 PM 12.2 °F -0.2 °F 5.0 °F 73% 29.90 in 10.0 mi WNW 9.2 mph 16.1 mph N/A   Clear
9:35 PM 12.2 °F 0.7 °F 3.2 °F 67% 29.91 in 10.0 mi WNW 8.1 mph - N/A   Clear
9:55 PM 12.2 °F 1.7 °F 3.2 °F 67% 29.91 in 10.0 mi NW 6.9 mph - N/A   Clear
10:15 PM 12.2 °F 4.3 °F 3.2 °F 67% 29.91 in 10.0 mi NW 4.6 mph - N/A   Clear
10:35 PM 10.4 °F 2.2 °F 3.2 °F 73% 29.92 in 10.0 mi WNW 4.6 mph - N/A   Clear
10:55 PM 10.4 °F -1.5 °F 3.2 °F 73% 29.93 in 10.0 mi WNW 8.1 mph - N/A   Clear
11:15 PM 10.4 °F -1.5 °F 1.4 °F 67% 29.93 in 10.0 mi WNW 8.1 mph - N/A   Clear
11:35 PM 8.6 °F -4.7 °F 1.4 °F 73% 29.93 in 10.0 mi WNW 9.2 mph - N/A   Clear
11:55 PM 8.6 °F -1.3 °F 1.4 °F 73% 29.94 in 10.0 mi WNW 5.8 mph - N/A   Clear